Station BISM2 - 8571421 - Bishops Head, MD Image indicating link to RSS feed of recent meteorological observations for station BISM2


Conditions at BISM2 as of
(7:30 pm EST on 12/06/2023)
0030 GMT on 12/07/2023:
     

Click on the graph icon in the table below to see a time series plot of the last five days of that observation.

5-day plot - Wind Direction Wind Direction (WDIR):NNW ( 330 deg true )
5-day plot - Wind Speed Wind Speed (WSPD): 7.0 kts
5-day plot - Wind Gust Wind Gust (GST): 8.9 kts
5-day plot - Atmospheric Pressure Atmospheric Pressure (PRES):30.11 in
5-day plot - Air Temperature Air Temperature (ATMP): 41.7 °F
5-day plot - Water Temperature Water Temperature (WTMP): 46.2 °F
5-day plot - Wind Chill Wind Chill (CHILL): 36.7 °F
5-day plot - Wind Speed at 10 Meters Wind Speed at 10 meters (WSPD10M): 7.8 kts
5-day plot - Wind Speed at 20 Meters Wind Speed at 20 meters (WSPD20M): 7.8 kts
5-day plot -  Wind Speed, Wind Gust and Atmospheric Pressure Combined plot of Wind Speed, Gust, and Air Pressure
NOS Water Level Observation Network Water Level
Previous observations
TIME
(EST)
5-day plot - Wind Direction
WDIR
 
5-day plot - Wind Speed
WSPD
kts
5-day plot - Wind Gust
GST
kts
5-day plot - Wave Height
WVHT
ft
5-day plot - Dominant Wave Period
DPD
sec
5-day plot - Average Wave Period
APD
sec
5-day plot - Mean Wave Direction
MWD
 
5-day plot - Atmospheric Pressure
PRES
in
5-day plot - Pressure Tendency
PTDY
in
5-day plot - Air Temperature
ATMP
°F
5-day plot - Water Temperature
WTMP
°F
5-day plot - Dew Point
DEWP
°F
5-day plot - Salinity
SAL
psu
5-day plot - Visibility
VIS
nmi
5-day plot - Tide (above MLLW)
TIDE
ft
2023-12-06 07:24 pmNNW 6.0 7.0----30.10- 41.0 46.4----
2023-12-06 07:18 pmNNW 6.0 8.0----30.11- 40.8 46.4----
2023-12-06 07:12 pmNNW 6.0 7.0----30.10- 40.5 46.4----
2023-12-06 07:06 pmNNW 6.0 7.0----30.10- 40.6 46.4----
2023-12-06 07:00 pm---------- 46.4----
2023-12-06 06:54 pm---------- 46.4----
2023-12-06 06:48 pmNNW 7.0 11.1----30.10-------
2023-12-06 06:42 pmNNW 8.0 11.1----30.10-------
2023-12-06 06:36 pmNNW 9.9 13.0----30.09-------
2023-12-06 06:30 pmNNW 8.9 13.0------------
2023-12-06 06:24 pmNNW 8.9 11.1------------
2023-12-06 06:00 pmNNW 7.0 8.0----30.08+0.05- 46.6----
2023-12-06 05:54 pmNNW 6.0 8.9----30.08-- 46.8----
2023-12-06 05:48 pmNNW 7.0 8.9----30.08-- 46.8----
2023-12-06 05:42 pm N 7.0 8.9----30.07-- 46.8----
2023-12-06 05:36 pm N 7.0 9.9----30.07-- 46.8----
2023-12-06 05:30 pm N 6.0 7.0----30.07-- 46.8----
2023-12-06 05:24 pm N 5.1 8.0----30.07-- 46.8----
2023-12-06 05:18 pm-------30.06-------
2023-12-06 05:12 pm-------30.06-------
2023-12-06 05:06 pm-------30.06-------
2023-12-06 05:00 pm-------30.06+0.04------
2023-12-06 04:54 pm-------30.06-------
2023-12-06 04:48 pmNNW 8.9 13.0----30.06- 41.7 47.1----
2023-12-06 04:42 pmNNW 9.9 13.0----30.06- 41.7 47.1----
2023-12-06 04:36 pmNNW 8.0 12.0----30.05- 41.7 47.1----
2023-12-06 04:30 pmNNW 8.0 15.9----30.05- 41.7 47.1----
2023-12-06 04:24 pmNNW 11.1 15.0----30.05- 41.9 47.1----
2023-12-06 04:18 pm N 8.0 14.0----30.05- 41.9 47.3----
2023-12-06 04:12 pmNNW 11.1 14.0----30.05- 42.3 47.3----
2023-12-06 04:06 pm N 9.9 15.0----30.05- 42.3 47.3----
2023-12-06 04:00 pmNNW 12.0 15.0----30.05+0.04 42.8 47.3----
2023-12-06 03:54 pmNNW 13.0 15.9----30.04- 43.2 47.3----
2023-12-06 03:48 pm N 12.0 15.9------ 43.2 47.3----
2023-12-06 03:42 pm N 12.0 15.9------ 43.0 47.5----
2023-12-06 03:36 pmNNW 12.0 19.0------ 42.4 47.5----
2023-12-06 03:30 pm-------30.04-- 47.5----
2023-12-06 03:24 pm-------30.03-- 47.5----
2023-12-06 03:18 pmNNW 15.0 22.0----30.03- 42.6 47.5----
2023-12-06 03:12 pm N 14.0 22.0----30.03- 43.2 47.5----
2023-12-06 03:06 pmNNW 15.9 20.0----30.03- 43.7 47.5----
2023-12-06 03:00 pmNNW 15.0 20.0----30.03+0.01 43.7 47.5----
2023-12-06 02:54 pm NW 15.0 17.1----30.03- 43.5 47.5----
2023-12-06 02:48 pm NW 13.0 22.0----30.03- 43.3 47.5----
2023-12-06 02:42 pm NW 13.0 15.9----30.03- 42.8 47.5----
2023-12-06 02:36 pmNNW 9.9 14.0----30.03- 42.8 47.5----
2023-12-06 02:30 pm NW 11.1 15.9----30.03- 41.9 47.5----
2023-12-06 02:24 pm NW 12.0 15.0----30.03- 41.7 47.5----
2023-12-06 02:18 pm NW 12.0 22.9----30.03- 41.4 47.5----
2023-12-06 02:12 pm NW 20.0 25.1----30.02- 41.2 47.7----
2023-12-06 02:06 pm NW 15.9 22.0----30.02- 43.2 47.7----
2023-12-06 02:00 pmNNW 14.0 18.1----30.02-0.01 43.5 47.7----
2023-12-06 01:54 pmNNW 13.0 18.1----30.02- 43.7 47.8----
2023-12-06 01:48 pmNNW 12.0 21.0----30.02- 43.9 47.8----
2023-12-06 01:42 pmNNW 15.0 17.1----30.01- 44.1 47.7----
2023-12-06 01:36 pmNNW 14.0 21.0----30.01- 44.1 47.5----
2023-12-06 01:30 pmNNW 14.0 21.0----30.01- 44.4 47.5----
2023-12-06 01:24 pm NW 14.0 21.0----30.01- 44.4 47.5----
2023-12-06 01:18 pmNNW 15.9 20.0----30.01- 44.4 47.7----
2023-12-06 01:12 pmNNW 12.0 20.0----30.01- 44.6 47.5----
2023-12-06 01:06 pmNNW 15.0 19.0----30.01- 45.0 47.7----
2023-12-06 01:00 pmNNW 15.0 19.0----30.01- 45.5 47.5----
2023-12-06 12:54 pmNNW 12.0 18.1----30.01- 45.5 47.5----
2023-12-06 12:48 pmNNW 14.0 19.0----30.01- 44.6 47.5----
2023-12-06 12:42 pm N 14.0 19.0----30.01- 45.0 47.5----
2023-12-06 12:36 pmNNW 11.1 17.1----30.01- 45.7 47.5----
2023-12-06 12:30 pmNNW 14.0 20.0----30.01- 45.7 47.5----
2023-12-06 12:24 pmNNW 13.0 21.0----30.01- 45.3 47.5----
2023-12-06 12:18 pmNNW 15.0 20.0----30.01- 44.4 47.5----
2023-12-06 12:12 pmNNW 12.0 18.1----30.01- 45.3 47.5----
2023-12-06 12:06 pmNNW 11.1 18.1----30.02- 44.6 47.3----
2023-12-06 12:00 pm N 12.0 17.1----30.02-0.01 45.0 47.3----
2023-12-06 11:54 amNNW 13.0 18.1----30.02- 44.6 47.3----
2023-12-06 11:48 am NW 11.1 15.9----30.02- 45.1 47.3----
2023-12-06 11:42 amNNW 13.0 19.0----30.03- 44.4 47.3----
2023-12-06 11:36 amNNW 12.0 15.9----30.03- 45.0 47.3----
2023-12-06 11:30 amNNW 12.0 15.9----30.03- 45.1 47.3----
2023-12-06 11:24 amNNW 12.0 17.1----30.03- 44.8 47.3----
2023-12-06 11:18 amNNW 12.0 17.1----30.03- 45.7 47.1----
2023-12-06 11:12 amNNW 15.0 17.1----30.03- 44.2 47.1----
2023-12-06 11:06 amNNW 12.0 14.0----30.03- 45.1 47.1----
2023-12-06 11:00 amNNW 13.0 15.9----30.03+0.02 44.1 47.1----
2023-12-06 10:54 amNNW 8.9 12.0----30.03- 44.4 47.1----
2023-12-06 10:48 amNNW 8.9 14.0----30.03- 44.4 47.1----
2023-12-06 10:42 amNNW 9.9 17.1----30.03- 43.5 47.1----
2023-12-06 10:36 am NW 14.0 15.0----30.03- 43.5 47.1----
2023-12-06 10:30 am N 11.1 15.9----30.04- 43.7 47.1----
2023-12-06 10:24 amNNW 12.0 19.0----30.04- 43.5 47.1----
2023-12-06 10:18 amNNW 13.0 18.1----30.04- 43.3 47.1----
2023-12-06 10:12 amNNW 12.0 15.0----30.04- 43.7 47.1----
2023-12-06 10:06 amNNW 13.0 15.9----30.03- 43.3 47.1----
2023-12-06 10:00 am--------- 43.5-----
2023-12-06 09:54 am--------- 43.5-----
2023-12-06 09:48 amNNW 14.0 18.1----30.03- 43.2 47.3----
2023-12-06 09:42 amNNW 11.1 15.9----30.03- 43.3 47.3----
2023-12-06 09:36 amNNW 11.1 14.0----30.03- 43.3 47.3----
2023-12-06 09:30 amNNW 11.1 13.0----30.03- 43.2 47.3----
2023-12-06 09:24 am N 9.9 14.0----30.03- 42.8 47.1----
2023-12-06 09:18 am N 8.9 13.0----30.02- 42.6 47.1----
2023-12-06 09:12 am N 8.0 12.0----30.02- 42.6 47.1----
2023-12-06 09:06 am N 8.0 12.0----30.03- 42.3 47.1----
2023-12-06 09:00 am N 7.0 11.1----30.03+0.06 42.1 47.1----
2023-12-06 08:54 am N 7.0 8.9----30.02- 41.9 47.3----
2023-12-06 08:48 am N 7.0 9.9----30.02- 41.9 47.3----
2023-12-06 08:42 am N 8.0 11.1----30.02- 41.7 47.3----
2023-12-06 08:36 am N 8.9 11.1----30.02- 41.7 47.3----
2023-12-06 08:30 am N 7.0 11.1----30.02- 41.5 47.3----
2023-12-06 08:24 am N 7.0 9.9----30.02- 41.4 47.3----
2023-12-06 08:18 am N 7.0 9.9----30.02- 41.4 47.3----
2023-12-06 08:12 am N 8.0 8.9----30.01- 41.4 47.3----
2023-12-06 08:06 am N 7.0 8.9----30.01- 41.4 47.3----
2023-12-06 08:00 am N 6.0 8.9----30.01+0.06 41.4 47.3----
2023-12-06 07:54 am N 6.0 8.9----30.01- 41.4 47.3----
2023-12-06 07:48 am N 7.0 8.9----30.01- 41.4 47.3----
2023-12-06 07:42 am N 6.0 8.0----30.01- 41.4 47.3----
2023-12-06 07:36 am N 6.0 8.9----30.01- 41.4 47.5----
2023-12-06 07:30 amNNW 6.0 8.9----30.01- 41.4 47.5----
2023-12-06 07:24 amNNW 7.0 8.9----30.00- 41.2 47.5----
2023-12-06 07:18 amNNW 8.0 11.1----30.00- 41.4 47.5----
2023-12-06 07:12 amNNW 8.9 12.0----30.00- 41.4 47.5----
2023-12-06 07:06 amNNW 6.0 11.1----30.00- 41.2 47.5----
2023-12-06 07:00 amNNW 7.0 11.1----30.00+0.04 41.4 47.5----
2023-12-06 06:54 amNNW 7.0 8.0----29.99- 41.5 47.5----
2023-12-06 06:48 amNNW 5.1 8.9----29.99- 41.7 47.7----
2023-12-06 06:42 amNNW 8.0 9.9----29.99- 41.9 47.7----
2023-12-06 06:36 amNNW 7.0 12.0----29.99- 42.1 47.7----
2023-12-06 06:30 am N 8.0 9.9----29.98- 42.3 47.7----
2023-12-06 06:24 am N 7.0 9.9----29.98- 42.4 47.7----
2023-12-06 06:18 am N 6.0 11.1----29.97- 42.4 47.5----
2023-12-06 06:12 am N 8.0 9.9----29.97- 42.4 47.5----
2023-12-06 06:06 am N 7.0 11.1----29.97- 42.4 47.5----
2023-12-06 06:00 am N 7.0 11.1----29.96+0.00 42.4 47.5----
2023-12-06 05:54 am N 9.9 13.0----29.96- 42.6 47.5----
2023-12-06 05:48 am N 8.0 13.0----29.96- 42.6 47.5----
2023-12-06 05:42 am N 9.9 12.0----29.96- 42.6 47.5----
2023-12-06 05:36 am N 8.0 14.0----29.96- 42.6 47.5----
2023-12-06 05:30 am N 8.0 13.0----29.95- 42.4 47.5----
2023-12-06 05:24 am N 8.9 14.0----29.96- 42.4 47.5----
2023-12-06 05:18 am N 9.9 12.0----29.95- 42.4 47.5----
2023-12-06 05:12 am N 8.9 9.9----29.95- 42.4 47.5----
2023-12-06 05:06 am N 6.0 8.9----29.95- 42.4 47.5----
2023-12-06 05:00 am N 5.1 8.9----29.95+0.00 42.3 47.5----
2023-12-06 04:54 am N 6.0 9.9----29.95- 42.1 47.5----
2023-12-06 04:48 am N 6.0 11.1----29.95- 42.1 47.3----
2023-12-06 04:42 am N 5.1 9.9----29.95- 42.1 47.3----
2023-12-06 04:36 am N 6.0 12.0----29.95- 42.1 47.5----
2023-12-06 04:30 am N 6.0 8.9----29.95- 42.1 47.5----
2023-12-06 04:24 am N 6.0 8.9----29.95- 42.1 47.5----
2023-12-06 04:18 am N 5.1 13.0----29.95- 42.3 47.5----
2023-12-06 04:12 am N 9.9 12.0----29.95- 42.6 47.5----
2023-12-06 04:06 am N 7.0 11.1----29.95- 43.0 47.5----
2023-12-06 04:00 amNNE 7.0 12.0----29.95+0.00- 47.5----
2023-12-06 03:54 amNNE 7.0 9.9----29.95-- 47.7----
2023-12-06 03:48 amNNE 6.0 12.0----29.95- 43.2 47.7----
2023-12-06 03:42 am NE 11.1 13.0----29.95- 43.0 47.7----
2023-12-06 03:36 amNNE 8.9 13.0----29.95- 43.0 47.7----
2023-12-06 03:30 amNNE 6.0 11.1----29.96- 43.0 47.7----
2023-12-06 03:24 amNNE 7.0 11.1----29.96- 43.2 47.8----
2023-12-06 03:18 amNNE 7.0 12.0----29.96- 43.2 47.8----
2023-12-06 03:12 amNNE 7.0 12.0----29.96- 43.3 47.8----
2023-12-06 03:06 amNNE 5.1 11.1----29.96- 43.3 48.0----
2023-12-06 03:00 amNNE 8.0 13.0----29.96+0.00 43.5 48.0----
2023-12-06 02:54 am NE 12.0 14.0----29.96- 43.5 48.0----
2023-12-06 02:48 am NE 9.9 12.0----29.96- 43.7 48.0----
2023-12-06 02:42 am NE 8.9 12.0----29.96- 43.5 48.0----
2023-12-06 02:36 am NE 9.9 13.0----29.96- 43.5 48.2----
2023-12-06 02:30 am NE 8.9 11.1----29.95- 43.5 48.2----
2023-12-06 02:24 am NE 7.0 9.9----29.95- 43.7 48.2----
2023-12-06 02:18 am NE 6.0 9.9----29.95- 43.7 48.2----
2023-12-06 02:12 am NE 8.0 9.9----29.95- 43.9 48.4----
2023-12-06 02:06 am NE 5.1 8.9----29.95- 44.1 48.4----
2023-12-06 02:00 am NE 8.0 9.9----29.95+0.00 44.1 48.4----
2023-12-06 01:54 am NE 8.0 9.9----29.95- 44.1 48.4----
2023-12-06 01:48 am NE 8.0 12.0----29.95- 44.2 48.4----
2023-12-06 01:42 am NE 9.9 11.1----29.95- 44.2 48.4----
2023-12-06 01:36 am NE 7.0 11.1----29.95- 44.4 48.4----
2023-12-06 01:30 am NE 7.0 8.9----29.95- 44.6 48.4----
2023-12-06 01:24 am NE 8.0 8.9----29.95- 44.4 48.4----
2023-12-06 01:18 amNNE 5.1 7.0----29.95- 44.1 48.4----
2023-12-06 01:12 am N 5.1 7.0----29.95- 43.7 48.4----
2023-12-06 01:06 amNNE 4.1 8.0----29.95- 43.7 48.4----
2023-12-06 01:00 amNNE 5.1 8.9----29.95-0.02 43.7 48.4----
2023-12-06 12:54 amNNE 5.1 8.9----29.95- 43.5 48.4----
2023-12-06 12:48 amNNE 5.1 8.0----29.95- 43.0 48.4----
2023-12-06 12:42 am N 5.1 7.0----29.96- 42.6 48.6----
2023-12-06 12:36 am N 5.1 6.0----29.96- 42.8 48.6----
2023-12-06 12:30 am N 4.1 6.0----29.96- 42.8 48.6----
2023-12-06 12:24 am N 4.1 6.0----29.96- 43.2 48.6----
2023-12-06 12:18 am N 4.1 6.0----29.96- 43.9 48.6----
2023-12-06 12:12 am N 4.1 5.1----29.96- 44.1 48.6----
2023-12-06 12:06 am N 2.9 6.0----29.97- 44.6 48.6----
2023-12-06 12:00 am N 4.1 6.0----29.96-0.03 44.8 48.6----
2023-12-05 11:54 pm N 5.1 6.0----29.97- 45.0 48.6----
2023-12-05 11:48 pm NE 5.1 6.0----29.97- 45.3 48.6----
2023-12-05 11:42 pm NE 4.1 6.0----29.97- 45.3 48.6----
2023-12-05 11:36 pmENE 5.1 6.0----29.96- 45.5 48.6----
2023-12-05 11:30 pmENE 5.1 7.0----29.96- 45.5 48.6----
2023-12-05 11:24 pm E 6.0 7.0----29.96- 45.7 48.7----
2023-12-05 11:18 pm E 6.0 8.0----29.96- 45.7 48.7----
2023-12-05 11:12 pm E 5.1 8.9----29.96- 45.5 48.7----
2023-12-05 11:06 pm E 8.0 9.9----29.96- 45.7 48.7----
2023-12-05 11:00 pm E 8.9 13.0----29.95-0.05 45.9 48.7----
2023-12-05 10:54 pm E 11.1 12.0----29.95- 46.0 48.7----
2023-12-05 10:48 pm E 11.1 12.0----29.95-- 48.9----
2023-12-05 10:42 pm E 11.1 13.0----29.95-- 48.9----
2023-12-05 10:36 pm E 8.9 12.0----29.95-- 48.9----
2023-12-05 10:30 pm E 9.9 12.0----29.95-- 48.9----
2023-12-05 10:24 pmENE 8.0 9.9----29.96-- 48.9----
2023-12-05 10:18 pm-------29.96-- 48.9----
2023-12-05 10:12 pm-------29.96-- 48.9----
2023-12-05 10:06 pm-------29.97-- 48.9----
2023-12-05 10:00 pmENE 8.0 8.9----29.97-0.05- 48.9----
2023-12-05 09:54 pmENE 8.0 8.0----29.98-- 48.9----
2023-12-05 09:48 pmENE 6.0 8.0----29.98- 45.5 48.9----
2023-12-05 09:42 pm NE 5.1 8.0----29.98- 45.7 48.9----
2023-12-05 09:36 pmENE 6.0 8.0----29.99- 45.9 48.9----
2023-12-05 09:30 pmENE 6.0 8.0----29.99- 45.9 48.9----
2023-12-05 09:24 pmENE 6.0 8.0----29.99- 46.2 48.9----
2023-12-05 09:18 pm E 6.0 8.9----29.99- 46.4 48.9----
2023-12-05 09:12 pm E 8.0 8.9----29.99- 46.6 49.1----
2023-12-05 09:06 pm E 8.0 8.9----29.99- 46.6 49.1----
2023-12-05 09:00 pm E 8.0 9.9----29.99-0.03 46.6 49.1----
2023-12-05 08:54 pm E 8.0 9.9----29.99- 46.6 49.1----
2023-12-05 08:48 pm E 7.0 9.9----29.99- 46.6 49.1----
2023-12-05 08:42 pm E 8.9 9.9----29.99- 46.6 49.1----
2023-12-05 08:36 pm E 8.0 9.9----29.99- 46.4 49.3----
2023-12-05 08:30 pm E 7.0 8.9----30.00- 46.4 49.3----
2023-12-05 08:24 pm E 7.0 9.9----30.00- 46.8 49.3----
2023-12-05 08:18 pm E 8.0 9.9----29.99- 46.9 49.3----
2023-12-05 08:12 pm E 7.0 8.9----30.00- 47.1 49.3----
2023-12-05 08:06 pm E 7.0 8.0----30.00- 47.3 49.3----
2023-12-05 08:00 pm E 7.0 8.9----30.00-0.02 47.5 49.3----
2023-12-05 07:54 pm E 7.0 8.9----30.00- 47.5 49.3----